User: anonymous   Login
Location: *
(35.8942°N, 23.3025°E)
Time: 17:53:33
(UTC+00:00)
Language:

FENGYUN 3A - Orbit

View from above orbital plane
View from above orbital plane
View from above satellite
View from above satellite

Ground track
Ground track

The orbit data is extracted from the following two-line orbital elements,

1 32958U 08026A   21339.94117825  .00000015  00000-0  27024-4 0  9993
2 32958  98.4753 305.7903 0007964 217.6852 142.3768 14.18678097700895
Epoch (UTC): 05 December 2021 22:35:17
Eccentricity: 0.0007964
inclination: 98.4753°
perigee height: 824 km
apogee height: 835 km
right ascension of ascending node: 305.7903°
argument of perigee: 217.6852°
revolutions per day: 14.18678097
mean anomaly at epoch: 142.3768°
orbit number at epoch: 70089

The dashed part of the orbit path shows where the satellite is in the earth's shadow,  

DLR